QPF
0.05 0.04 0.00 0.00 0.01 0.01 0.01 0.01 0.00 0.00 0.00 0.00 0.00 0.00 0.00 0.00 0.00 0.00 0.00 0.00 0.00 0.00 0.00 0.00 0.00 0.00 0.00 0.00 0.00 0.00 0.00 0.00 0.00 0.00 0.00 0.00 0.00 0.00 0.00 0.00 0.00 0.00 0.00 0.00
0.05 0.00 0.00 0.00 0.00 0.00 0.00 0.00 0.00 0.00 0.00 0.00 0.00 0.03 0.00 0.00 0.00 0.00 0.00 0.00 0.00 0.00 0.00 0.00 0.00 0.00 0.00 0.00 0.00 0.00 0.00 0.00 0.00 0.00 0.00 0.00 0.00 0.00 0.00 0.00 0.00 0.00 0.00 0.00
0.01 0.00 0.00 0.00 0.00 0.00 0.00 0.00 0.00 0.00 0.00 0.00 0.00 0.00 0.00 0.00 0.00 0.00 0.00 0.00 0.00 0.00 0.00 0.00 0.00 0.00 0.00 0.00 0.00 0.00 0.00 0.00 0.00 0.00 0.00 0.00 0.00 0.00 0.00 0.00 0.00 0.00 0.00 0.00
0.00 0.00 0.00 0.00 0.00 0.00 0.00 0.00 0.00 0.00 0.00 0.00 0.00 0.00 0.00 0.00 0.00 0.00 0.00 0.00 0.00 0.00 0.00 0.00 0.00 0.00 0.00 0.00 0.00 0.00 0.00 0.00 0.00 0.00 0.00 0.00 0.00 0.00 0.00 0.00 0.00 0.00 0.00 0.00
0.00 0.00 0.00 0.01 0.01 0.00 0.00 0.00 0.00 0.00 0.00 0.00 0.00 0.01 0.00 0.00 0.00 0.00 0.00 0.00 0.00 0.00 0.00 0.00 0.00 0.00 0.00 0.00 0.00 0.00 0.00 0.00 0.00 0.00 0.00 0.00 0.00 0.00 0.00 0.00 0.00 0.00 0.00 0.00
0.00 0.00 0.00 0.00 0.00 0.00 0.00 0.00 0.00 0.00 0.00 0.00 0.00 0.00 0.00 0.00 0.00 0.00 0.00 0.00 0.00 0.00 0.00 0.00 0.00 0.00 0.00 0.00 0.00 0.00 0.00 0.00 0.00 0.00 0.00 0.00 0.00 0.00 0.00 0.00 0.00 0.00 0.00 0.00
0.00 0.00 0.00 0.00 0.00 0.00 0.00 0.00 0.00 0.00 0.00 0.00 0.00 0.00 0.00 0.00 0.00 0.00 0.00 0.00 0.00 0.00 0.00 0.00 0.00 0.00 0.00 0.00 0.00 0.00 0.00 0.00 0.00 0.00 0.00 0.00 0.00 0.00 0.00 0.00 0.00 0.00 0.00 0.00
0.00 0.01 0.01 0.00 0.00 0.00 0.00 0.00 0.00 0.00 0.00 0.00 0.00 0.00 0.00 0.00 0.00 0.00 0.00 0.00 0.00 0.00 0.00 0.00 0.00 0.00 0.00 0.01 0.00 0.00 0.00 0.00 0.00 0.00 0.00 0.00 0.00 0.00 0.00 0.00 0.00 0.00 0.00 0.00
0.01 0.00 0.00 0.00 0.00 0.00 0.00 0.00 0.00 0.00 0.00 0.00 0.00 0.00 0.00 0.00 0.00 0.00 0.00 0.00 0.00 0.00 0.00 0.00 0.00 0.00 0.12 0.04 0.00 0.00 0.00 0.00 0.00 0.00 0.00 0.00 0.00 0.00 0.00 0.00 0.00 0.00 0.00 0.00
0.00 0.00 0.00 0.00 0.00 0.00 0.00 0.00 0.00 0.00 0.00 0.00 0.00 0.00 0.00 0.00 0.00 0.00 0.00 0.00 0.00 0.00 0.00 0.00 0.00 0.01 0.08 0.01 0.00 0.00 0.00 0.00 0.00 0.00 0.00 0.00 0.00 0.00 0.00 0.00 0.00 0.00 0.00 0.00
0.01 0.01 0.01 0.00 0.00 0.00 0.00 0.00 0.00 0.00 0.00 0.00 0.00 0.00 0.00 0.00 0.00 0.00 0.00 0.00 0.00 0.00 0.00 0.00 0.00 0.00 0.00 0.00 0.00 0.00 0.00 0.00 0.00 0.00 0.00 0.00 0.00 0.00 0.00 0.00 0.00 0.00 0.00 0.00
0.00 0.00 0.01 0.00 0.00 0.00 0.00 0.00 0.00 0.00 0.00 0.00 0.00 0.00 0.00 0.00 0.00 0.00 0.00 0.00 0.00 0.00 0.00 0.00 0.00 0.00 0.00 0.00 0.00 0.00 0.00 0.00 0.00 0.00 0.00 0.00 0.00 0.00 0.00 0.00 0.00 0.00 0.00 0.00
0.01 0.00 0.00 0.00 0.00 0.00 0.00 0.00 0.00 0.00 0.00 0.00 0.00 0.00 0.00 0.00 0.00 0.00 0.00 0.00 0.00 0.00 0.00 0.00 0.00 0.00 0.00 0.00 0.00 0.00 0.00 0.00 0.00 0.00 0.00 0.00 0.00 0.00 0.00 0.00 0.00 0.00 0.00 0.00
0.00 0.00 0.00 0.00 0.00 0.00 0.00 0.00 0.00 0.00 0.00 0.00 0.00 0.00 0.00 0.00 0.00 0.00 0.00 0.00 0.00 0.00 0.00 0.00 0.00 0.00 0.00 0.00 0.00 0.00 0.00 0.03 0.04 0.01 0.00 0.00 0.00 0.00 0.00 0.00 0.00 0.00 0.00 0.00
0.00 0.00 0.00 0.00 0.00 0.00 0.00 0.00 0.00 0.00 0.00 0.00 0.00 0.00 0.00 0.00 0.00 0.00 0.00 0.00 0.00 0.00 0.00 0.00 0.00 0.00 0.00 0.00 0.00 0.05 0.16 0.41 0.43 0.13 0.04 0.00 0.00 0.00 0.00 0.00 0.00 0.00 0.00 0.00
0.00 0.00 0.00 0.00 0.00 0.00 0.00 0.00 0.00 0.00 0.00 0.00 0.00 0.00 0.00 0.00 0.00 0.00 0.00 0.00 0.00 0.00 0.00 0.00 0.00 0.00 0.00 0.00 0.13 0.49 0.85 0.86 0.27 0.13 0.18 0.07 0.00 0.00 0.00 0.01 0.02 0.04 0.04 0.06
0.00 0.00 0.00 0.00 0.00 0.00 0.00 0.00 0.00 0.00 0.00 0.00 0.00 0.00 0.00 0.00 0.00 0.00 0.00 0.00 0.00 0.00 0.00 0.00 0.00 0.00 0.00 0.03 0.14 0.61 0.92 0.31 0.14 0.18 0.20 0.02 0.00 0.00 0.00 0.02 0.07 0.08 0.15 0.23
0.00 0.00 0.00 0.00 0.00 0.00 0.00 0.00 0.00 0.00 0.00 0.00 0.00 0.00 0.00 0.00 0.00 0.00 0.00 0.00 0.00 0.00 0.00 0.00 0.00 0.00 0.00 0.01 0.03 0.09 0.02 0.03 0.05 0.19 0.12 0.00 0.01 0.03 0.04 0.08 0.12 0.21 0.30 0.39
0.00 0.00 0.00 0.00 0.00 0.00 0.00 0.00 0.00 0.00 0.00 0.00 0.00 0.00 0.00 0.00 0.00 0.00 0.00 0.00 0.00 0.00 0.00 0.00 0.00 0.00 0.00 0.00 0.00 0.00 0.00 0.00 0.00 0.00 0.00 0.00 0.01 0.01 0.03 0.06 0.11 0.16 0.31 0.33
0.00 0.00 0.00 0.01 0.05 0.07 0.01 0.00 0.00 0.00 0.00 0.00 0.00 0.00 0.00 0.00 0.00 0.00 0.00 0.00 0.00 0.00 0.00 0.00 0.00 0.00 0.00 0.00 0.00 0.00 0.00 0.00 0.00 0.00 0.00 0.00 0.00 0.00 0.01 0.05 0.03 0.11 0.23 0.30
0.02 0.02 0.05 0.04 0.02 0.00 0.00 0.00 0.00 0.00 0.00 0.00 0.00 0.00 0.00 0.00 0.00 0.00 0.00 0.00 0.00 0.00 0.00 0.00 0.00 0.00 0.00 0.00 0.00 0.00 0.00 0.00 0.00 0.00 0.00 0.00 0.00 0.00 0.02 0.04 0.11 0.12 0.12 0.30
0.02 0.01 0.00 0.00 0.00 0.00 0.00 0.00 0.00 0.00 0.00 0.00 0.00 0.00 0.00 0.00 0.00 0.00 0.00 0.00 0.00 0.00 0.00 0.00 0.00 0.00 0.00 0.00 0.00 0.00 0.00 0.00 0.00 0.00 0.00 0.00 0.00 0.00 0.01 0.02 0.06 0.09 0.06 0.07
0.00 0.00 0.00 0.00 0.00 0.00 0.00 0.00 0.00 0.00 0.00 0.00 0.00 0.00 0.00 0.00 0.00 0.00 0.00 0.00 0.00 0.00 0.00 0.00 0.00 0.00 0.00 0.00 0.00 0.00 0.00 0.00 0.00 0.00 0.00 0.00 0.00 0.00 0.01 0.02 0.03 0.08 0.06 0.03
0.00 0.00 0.00 0.00 0.00 0.00 0.00 0.00 0.00 0.00 0.00 0.00 0.00 0.00 0.00 0.00 0.00 0.00 0.00 0.00 0.00 0.00 0.00 0.00 0.00 0.00 0.00 0.00 0.00 0.00 0.00 0.00 0.01 0.00 0.00 0.00 0.00 0.00 0.00 0.02 0.03 0.07 0.09 0.05
0.00 0.00 0.00 0.00 0.00 0.00 0.00 0.00 0.00 0.00 0.00 0.00 0.00 0.00 0.00 0.00 0.00 0.00 0.00 0.00 0.00 0.00 0.00 0.00 0.00 0.00 0.00 0.00 0.00 0.01 0.07 0.10 0.01 0.00 0.00 0.00 0.01 0.01 0.02 0.06 0.02 0.03 0.08 0.16
0.00 0.00 0.00 0.00 0.00 0.00 0.00 0.00 0.00 0.00 0.00 0.00 0.00 0.00 0.00 0.00 0.00 0.00 0.00 0.00 0.00 0.00 0.00 0.00 0.00 0.00 0.00 0.00 0.04 0.10 0.13 0.05 0.03 0.00 0.01 0.02 0.02 0.01 0.11 0.04 0.00 0.01 0.07 0.17
MSLP
1007.40 1006.55 1006.40 1005.66 1005.34 1004.95 1004.09 1002.82 1002.84 1001.62 1000.88 1002.21 1002.79 1003.56 1003.54 1003.40 1003.92 1004.12 1004.46 1004.89 1005.31 1005.79 1005.88 1006.24 1006.69 1007.01 1007.66 1008.17 1008.78 1009.33 1009.77 1010.26 1010.86 1011.39 1011.87 1012.24 1012.33 1012.24 1012.14 1012.03 1011.75 1011.81 1012.06 1012.22
1008.28 1006.74 1004.87 1004.74 1003.74 1003.29 1002.26 1001.32 1000.76 1000.24 1000.15 1000.39 1002.42 1004.44 1003.26 1002.59 1002.43 1002.75 1003.44 1004.16 1004.51 1005.00 1005.37 1005.92 1006.30 1006.86 1007.42 1007.96 1008.32 1008.92 1009.34 1009.72 1010.14 1010.51 1010.93 1011.35 1011.62 1011.70 1011.61 1011.48 1011.24 1011.16 1011.43 1011.63
1008.19 1005.01 1004.16 1003.55 1001.79 1001.22 1000.48 1000.28 1000.24 1000.32 1000.24 1001.13 1002.26 1003.80 1002.96 1002.13 1001.57 1001.87 1002.30 1002.85 1003.56 1003.99 1004.67 1005.20 1005.57 1005.90 1006.49 1007.23 1007.71 1008.10 1008.39 1008.82 1009.25 1009.66 1010.24 1010.62 1011.01 1011.26 1011.26 1011.15 1010.96 1010.72 1010.61 1010.91
1007.05 1004.22 1003.42 1002.38 1001.36 1000.28 999.82 999.30 999.86 1000.18 1001.28 1002.61 1002.75 1004.09 1002.95 1002.24 1001.80 1001.72 1001.56 1002.22 1002.57 1003.06 1003.46 1004.09 1004.62 1005.05 1005.36 1006.00 1006.67 1007.23 1007.54 1007.85 1008.14 1008.62 1009.21 1009.68 1009.98 1010.35 1010.32 1010.29 1010.15 1010.12 1009.87 1010.21
1003.90 1002.82 1002.41 1000.54 999.83 999.12 998.88 998.53 999.66 1000.70 1002.14 1003.38 1004.48 1004.67 1003.02 1002.22 1002.02 1001.66 1001.25 1001.50 1001.71 1001.91 1002.14 1002.82 1003.52 1003.89 1004.18 1004.50 1005.34 1006.02 1006.75 1007.21 1007.49 1008.00 1008.20 1008.59 1009.06 1009.26 1009.40 1009.58 1009.70 1009.61 1009.49 1009.52
1002.82 1001.64 1000.64 999.59 998.59 998.15 998.04 998.62 1000.29 1001.54 1002.76 1004.12 1004.24 1004.33 1003.01 1002.15 1001.51 1001.15 1000.86 1000.58 1000.65 1001.14 1001.11 1001.48 1001.85 1002.71 1003.50 1004.02 1004.22 1004.96 1005.76 1005.90 1006.62 1007.10 1007.56 1007.93 1008.20 1008.60 1009.10 1009.35 1009.49 1009.53 1009.34 1009.37
1002.67 1001.09 999.84 999.05 998.37 997.66 998.06 998.86 1000.56 1002.73 1003.61 1003.41 1002.69 1003.78 1002.23 1000.85 1000.26 1000.04 1000.07 1000.09 1000.07 1000.19 1000.46 1000.69 1001.00 1002.10 1003.54 1004.35 1004.16 1004.22 1004.86 1005.43 1005.68 1006.15 1006.87 1007.31 1007.78 1008.22 1008.51 1008.88 1009.12 1009.21 1009.19 1009.13
1003.67 1001.56 999.56 997.98 997.76 997.72 998.02 998.85 999.92 1001.46 1002.88 1003.22 1002.60 1002.38 1001.02 1000.07 999.64 999.56 999.34 999.66 999.92 1000.06 999.94 1000.84 1002.14 1003.52 1003.75 1003.32 1004.72 1005.15 1003.76 1004.75 1005.43 1005.81 1005.82 1006.45 1006.86 1007.33 1007.67 1008.02 1008.38 1008.66 1008.66 1008.50
1003.72 1001.87 999.56 997.99 997.61 997.66 997.88 998.35 998.81 1000.28 1001.83 1003.44 1003.02 1001.86 1000.77 1000.07 1000.00 999.98 999.63 999.66 999.95 1000.77 1001.64 1001.46 1002.16 1001.64 1002.48 1003.20 1001.78 1002.54 1003.70 1003.79 1004.70 1005.26 1005.68 1005.99 1006.54 1006.93 1007.20 1007.40 1007.56 1007.74 1007.85 1007.96
1003.84 1002.66 1000.06 998.58 997.72 997.32 997.45 997.84 998.68 1000.09 1001.78 1003.19 1003.20 1002.20 1001.32 1000.52 1000.56 999.92 999.79 1000.24 1000.56 1000.80 1001.57 1002.32 1002.59 1002.76 1003.14 1002.55 1002.00 1002.64 1003.44 1003.56 1004.38 1005.22 1006.04 1006.00 1006.40 1007.05 1007.39 1007.64 1007.67 1007.54 1007.39 1007.42
1003.59 1003.14 1000.56 999.37 998.40 997.91 997.94 998.30 999.10 1000.26 1001.50 1002.97 1003.57 1002.53 1000.33 1000.53 1000.26 1000.15 1000.47 1000.73 1000.87 1001.05 1001.45 1001.99 1002.44 1002.70 1002.54 1002.07 1003.00 1002.98 1003.46 1004.06 1004.62 1005.01 1005.23 1005.42 1005.88 1006.37 1007.08 1007.56 1007.63 1007.61 1007.41 1007.12
1002.92 1002.10 1002.00 999.99 998.17 997.66 997.90 998.41 999.20 1000.82 1001.84 1002.30 1002.22 1002.33 1000.90 1000.46 1000.62 1001.15 1001.42 1001.56 1001.51 1001.61 1001.43 1001.45 1001.72 1002.00 1001.95 1002.27 1003.60 1004.01 1003.97 1004.34 1005.01 1005.40 1005.54 1005.56 1004.95 1005.20 1006.15 1006.90 1007.10 1007.27 1007.14 1006.81
1001.18 1001.24 1001.83 1001.10 999.36 998.29 998.27 998.29 998.77 999.97 1001.10 1002.29 1002.91 1002.91 1001.86 1001.90 1001.47 1002.45 1002.38 1002.40 1002.37 1002.45 1002.14 1001.98 1002.11 1002.36 1002.61 1002.70 1003.49 1003.98 1004.36 1004.82 1005.02 1005.22 1005.46 1006.16 1006.30 1005.41 1005.21 1005.77 1006.33 1006.46 1006.52 1006.27
999.38 1000.11 1000.55 1000.53 999.70 999.06 998.70 998.52 998.81 999.71 1001.11 1002.04 1002.74 1003.54 1003.30 1003.26 1003.10 1003.08 1003.13 1003.08 1003.15 1003.19 1002.92 1002.68 1002.82 1002.98 1002.64 1003.07 1003.45 1003.96 1004.41 1005.55 1005.09 1005.66 1005.94 1005.92 1006.30 1006.00 1005.27 1005.14 1005.36 1005.51 1005.76 1005.74
999.11 999.94 1000.01 999.80 999.43 999.00 998.80 998.88 999.18 999.86 1000.45 1001.50 1002.77 1003.69 1004.22 1003.99 1003.95 1003.92 1003.74 1003.73 1003.70 1003.62 1003.42 1003.30 1003.52 1003.62 1003.73 1003.98 1005.14 1006.28 1006.39 1006.84 1005.71 1007.87 1005.84 1004.58 1004.66 1004.48 1004.39 1004.56 1004.52 1004.59 1005.08 1005.00
998.77 999.95 1000.13 1000.22 999.95 999.52 999.32 999.11 999.22 999.49 1000.57 1001.82 1002.86 1004.02 1004.04 1004.07 1004.21 1004.42 1004.51 1004.35 1004.35 1004.17 1004.03 1003.98 1004.10 1004.30 1004.84 1005.60 1006.21 1005.60 1005.28 1005.06 1005.01 1004.86 1006.38 1004.84 1004.42 1004.02 1003.81 1003.86 1003.96 1004.28 1004.58 1004.79
998.95 1000.07 1001.13 1001.34 1000.77 1000.41 1000.09 999.70 999.39 999.95 1000.68 1002.03 1003.58 1004.26 1004.28 1004.70 1004.79 1005.04 1005.01 1004.58 1004.61 1004.52 1004.41 1004.66 1005.41 1005.24 1005.50 1006.17 1005.87 1005.84 1005.70 1005.18 1005.56 1005.62 1005.82 1004.48 1004.26 1004.07 1004.04 1003.78 1003.75 1003.90 1004.15 1004.36
999.39 1000.66 1001.46 1002.49 1002.18 1001.73 1000.69 999.88 999.77 1001.00 1001.91 1002.70 1003.70 1004.34 1004.72 1005.04 1005.08 1005.23 1005.00 1004.92 1005.00 1004.86 1005.02 1005.13 1005.50 1005.71 1005.70 1005.95 1006.05 1005.90 1005.90 1005.91 1006.10 1006.11 1005.03 1003.52 1004.58 1004.48 1003.82 1003.84 1003.64 1003.38 1003.53 1003.58
1000.51 1001.21 1002.68 1003.62 1003.91 1002.81 1002.03 1001.38 1001.07 1001.66 1003.91 1004.02 1004.48 1004.94 1005.21 1005.34 1005.21 1005.38 1005.26 1005.22 1005.60 1005.62 1005.60 1005.44 1005.34 1005.60 1005.69 1005.68 1005.68 1005.70 1005.63 1005.30 1005.10 1005.12 1004.90 1004.48 1004.59 1004.29 1003.79 1003.29 1003.02 1002.78 1002.77 1002.70
1002.29 1003.96 1004.89 1006.55 1007.03 1007.21 1005.37 1002.77 1001.71 1001.97 1004.60 1005.14 1005.31 1005.69 1005.85 1005.87 1006.42 1006.34 1005.90 1005.82 1005.87 1005.86 1005.85 1005.72 1005.48 1005.38 1005.44 1005.49 1005.25 1005.18 1005.05 1004.90 1004.92 1004.76 1004.58 1004.28 1003.95 1003.61 1003.26 1002.88 1002.68 1002.27 1002.09 1002.17
1004.04 1005.19 1006.83 1008.01 1007.19 1006.40 1004.75 1003.52 1002.70 1003.75 1006.07 1005.70 1005.82 1006.02 1006.16 1006.44 1006.41 1006.24 1006.00 1006.02 1005.98 1006.05 1006.08 1005.98 1005.82 1005.74 1005.56 1005.19 1005.10 1005.25 1005.09 1004.84 1004.45 1004.05 1003.68 1003.40 1003.15 1002.96 1002.64 1002.18 1001.92 1001.75 1001.49 1001.73
1003.74 1004.90 1005.61 1006.28 1005.88 1004.86 1003.78 1003.79 1004.64 1005.64 1005.63 1005.84 1005.91 1005.97 1006.16 1006.20 1006.13 1006.20 1006.24 1006.28 1006.32 1006.34 1006.16 1006.11 1006.12 1006.11 1005.70 1005.28 1005.07 1004.95 1004.76 1004.28 1003.82 1003.45 1003.16 1002.87 1002.59 1002.33 1002.06 1001.65 1001.30 1001.22 1000.92 1001.28
1003.50 1003.59 1004.29 1004.73 1004.84 1004.68 1004.57 1005.09 1005.33 1005.44 1005.76 1005.83 1005.92 1006.00 1006.09 1006.42 1006.51 1006.40 1006.39 1006.41 1006.42 1006.33 1006.28 1006.18 1006.14 1006.06 1005.75 1005.42 1005.14 1004.88 1004.29 1003.66 1003.23 1003.06 1002.90 1002.65 1002.31 1002.00 1001.77 1001.47 1000.98 1000.70 1000.44 1000.34
1002.84 1002.83 1003.88 1004.58 1005.75 1005.46 1005.49 1005.51 1005.56 1005.63 1005.82 1005.80 1005.88 1006.08 1006.24 1006.62 1006.53 1006.55 1006.55 1006.52 1006.48 1006.24 1006.21 1006.16 1006.09 1006.00 1005.77 1005.26 1004.79 1004.38 1004.01 1004.00 1003.85 1002.96 1002.74 1002.51 1002.22 1001.72 1001.39 1001.06 1000.50 1000.10 999.82 999.43
1002.80 1002.86 1003.76 1005.17 1005.71 1005.60 1005.81 1005.68 1005.62 1005.67 1005.76 1005.97 1006.12 1006.27 1006.49 1006.64 1006.72 1006.61 1006.57 1006.64 1006.50 1006.24 1006.11 1005.90 1005.71 1005.65 1005.51 1004.91 1004.32 1004.14 1004.33 1004.66 1003.73 1003.33 1002.52 1002.39 1001.97 1001.44 1000.90 1000.33 999.63 999.30 998.80 998.48
1003.27 1003.78 1004.33 1005.69 1005.72 1005.71 1006.06 1005.84 1005.66 1005.82 1005.86 1006.06 1006.30 1006.49 1006.62 1006.77 1006.81 1006.83 1006.80 1006.64 1006.58 1006.38 1006.26 1006.22 1006.10 1005.58 1005.31 1004.61 1004.14 1004.18 1003.68 1003.88 1003.44 1002.76 1002.44 1002.14 1001.69 1001.00 1000.34 999.73 998.54 998.10 998.17 998.14
Thickness
5826 5819 5810 5826 5842 5842 5841 5844 5821 5860 5884 5856 5849 5847 5857 5864 5859 5857 5858 5856 5855 5856 5865 5866 5864 5865 5862 5859 5854 5851 5847 5844 5840 5834 5828 5824 5822 5824 5825 5827 5827 5826 5822 5818
5814 5811 5848 5855 5860 5850 5855 5858 5860 5883 5894 5882 5852 5817 5856 5872 5875 5875 5871 5864 5865 5866 5866 5868 5867 5865 5862 5859 5858 5853 5851 5849 5845 5842 5838 5833 5830 5829 5829 5830 5829 5828 5827 5823
5802 5843 5863 5858 5863 5862 5869 5863 5861 5863 5888 5880 5861 5828 5855 5877 5885 5885 5884 5882 5879 5876 5870 5870 5871 5871 5870 5863 5861 5860 5859 5856 5853 5850 5843 5838 5834 5831 5828 5828 5829 5830 5828 5824
5821 5860 5856 5860 5857 5872 5853 5888 5881 5879 5854 5824 5862 5801 5846 5863 5869 5876 5885 5881 5883 5882 5883 5880 5877 5875 5877 5874 5872 5868 5864 5861 5859 5855 5847 5840 5834 5827 5829 5829 5830 5828 5828 5825
5844 5857 5856 5863 5869 5889 5874 5898 5884 5878 5848 5834 5822 5795 5827 5865 5854 5863 5878 5881 5885 5886 5886 5884 5883 5883 5885 5886 5878 5873 5867 5862 5860 5854 5851 5844 5837 5836 5833 5829 5826 5826 5827 5826
5863 5887 5880 5878 5900 5907 5910 5891 5872 5859 5838 5799 5818 5814 5823 5842 5855 5866 5879 5888 5892 5890 5895 5891 5893 5890 5885 5886 5887 5882 5871 5869 5864 5858 5852 5845 5840 5835 5827 5824 5820 5819 5819 5818
5852 5865 5889 5897 5879 5902 5896 5869 5817 5796 5800 5801 5846 5817 5831 5867 5882 5888 5883 5886 5895 5899 5897 5894 5892 5882 5877 5873 5876 5881 5875 5867 5867 5861 5853 5847 5841 5834 5828 5822 5818 5814 5812 5810
5801 5814 5878 5907 5892 5881 5880 5869 5826 5809 5809 5811 5851 5817 5845 5886 5897 5902 5906 5904 5905 5902 5903 5895 5879 5872 5880 5882 5870 5867 5878 5867 5862 5858 5856 5849 5843 5836 5830 5823 5817 5812 5810 5809
5809 5827 5887 5909 5908 5900 5877 5854 5893 5855 5855 5802 5831 5854 5874 5888 5884 5888 5897 5900 5901 5895 5887 5889 5881 5884 5882 5877 5890 5885 5878 5870 5862 5857 5849 5846 5839 5833 5827 5822 5818 5814 5811 5808
5839 5818 5871 5897 5909 5908 5897 5903 5847 5843 5818 5795 5813 5827 5823 5857 5862 5884 5892 5885 5889 5894 5887 5879 5877 5874 5868 5877 5887 5882 5874 5865 5858 5849 5841 5839 5833 5825 5818 5812 5808 5807 5805 5802
5847 5831 5856 5884 5879 5869 5870 5857 5868 5858 5840 5798 5790 5801 5871 5868 5878 5881 5877 5882 5885 5891 5890 5883 5877 5878 5877 5880 5866 5866 5858 5854 5850 5844 5839 5834 5828 5820 5811 5803 5798 5795 5793 5792
5853 5844 5813 5853 5899 5913 5896 5876 5863 5816 5822 5832 5816 5811 5880 5890 5885 5871 5869 5876 5883 5887 5891 5894 5892 5885 5879 5871 5858 5850 5849 5849 5843 5838 5832 5827 5828 5820 5808 5798 5793 5787 5782 5782
5869 5843 5815 5826 5860 5885 5878 5887 5886 5868 5850 5830 5803 5814 5876 5869 5869 5863 5861 5864 5867 5871 5874 5878 5878 5870 5863 5860 5850 5846 5842 5836 5832 5829 5823 5812 5807 5809 5804 5796 5786 5781 5775 5772
5892 5863 5843 5815 5836 5863 5857 5870 5879 5867 5822 5827 5831 5817 5838 5843 5848 5854 5856 5859 5859 5859 5862 5864 5863 5856 5853 5849 5847 5840 5832 5815 5811 5808 5804 5801 5793 5792 5793 5789 5783 5776 5769 5763
5883 5847 5862 5864 5868 5870 5868 5862 5863 5853 5858 5835 5833 5814 5823 5836 5843 5847 5852 5853 5851 5849 5851 5851 5844 5838 5835 5832 5819 5808 5799 5789 5776 5781 5796 5800 5793 5792 5789 5782 5777 5770 5759 5754
5883 5839 5854 5854 5861 5860 5851 5863 5863 5864 5859 5835 5829 5812 5837 5842 5844 5838 5838 5837 5835 5836 5839 5837 5835 5832 5819 5804 5796 5801 5802 5801 5792 5787 5761 5777 5779 5784 5780 5770 5764 5755 5747 5741
5869 5845 5830 5821 5848 5847 5823 5847 5856 5855 5856 5838 5805 5819 5834 5828 5828 5825 5824 5828 5826 5827 5829 5824 5814 5813 5805 5795 5792 5787 5785 5787 5776 5762 5741 5770 5769 5762 5758 5752 5750 5739 5735 5731
5863 5847 5833 5809 5824 5790 5840 5870 5868 5840 5844 5839 5830 5827 5825 5822 5825 5821 5824 5820 5817 5819 5816 5813 5804 5798 5796 5789 5781 5774 5769 5761 5757 5749 5739 5757 5751 5744 5744 5735 5733 5734 5730 5724
5865 5847 5821 5795 5795 5819 5828 5844 5843 5829 5803 5826 5816 5817 5818 5818 5818 5811 5814 5812 5803 5802 5802 5802 5801 5793 5789 5784 5780 5772 5762 5757 5753 5747 5745 5744 5737 5732 5730 5729 5728 5728 5725 5719
5834 5821 5801 5764 5737 5716 5784 5837 5860 5848 5772 5814 5813 5804 5800 5799 5767 5775 5799 5800 5795 5793 5791 5788 5789 5787 5781 5775 5773 5767 5761 5755 5747 5741 5737 5736 5733 5729 5727 5726 5724 5723 5717 5709
5788 5780 5758 5745 5746 5767 5811 5833 5846 5788 5769 5805 5803 5796 5792 5778 5778 5786 5791 5786 5784 5780 5776 5775 5772 5767 5765 5765 5760 5750 5746 5741 5742 5740 5738 5733 5729 5724 5722 5722 5720 5713 5708 5699
5795 5779 5777 5768 5773 5770 5833 5822 5788 5791 5801 5799 5796 5792 5785 5784 5784 5780 5776 5772 5769 5766 5765 5761 5754 5749 5750 5749 5745 5739 5733 5735 5734 5731 5727 5724 5721 5718 5716 5712 5711 5704 5699 5690
5791 5807 5787 5795 5784 5802 5811 5801 5806 5805 5794 5793 5789 5787 5783 5774 5771 5768 5763 5760 5756 5754 5748 5746 5739 5734 5731 5729 5726 5720 5723 5725 5723 5718 5713 5711 5710 5707 5703 5699 5699 5694 5689 5685
5824 5831 5796 5794 5787 5790 5796 5799 5799 5797 5790 5789 5785 5778 5772 5761 5759 5754 5751 5747 5743 5740 5733 5730 5723 5716 5711 5713 5713 5712 5710 5703 5699 5703 5700 5699 5696 5696 5694 5690 5688 5685 5681 5681
5810 5816 5801 5780 5783 5788 5787 5788 5788 5787 5785 5778 5776 5768 5760 5753 5746 5746 5738 5732 5728 5726 5721 5718 5710 5704 5699 5701 5702 5701 5693 5672 5683 5685 5690 5686 5686 5685 5684 5685 5684 5684 5684 5682
5803 5790 5773 5760 5783 5776 5772 5780 5783 5774 5770 5768 5759 5751 5749 5743 5736 5730 5723 5721 5715 5709 5703 5695 5691 5687 5684 5686 5687 5685 5688 5676 5677 5681 5679 5678 5677 5678 5678 5679 5687 5685 5681 5679